Time,TemperatureF,DewpointF,PressureIn,WindDirection,WindDirectionDegrees,WindSpeedMPH,WindSpeedGustMPH,Humidity,HourlyPrecipIn,Conditions,Clouds,dailyrainin,SoftwareType,DateUTC
2013-12-25 00:01:00,26.7,11.4,30.21,NE,39,3.5,3.5,52,0.00,-RA,OVC,0.00,WeatherDisplay:10.37,2013-12-25 07:01:00,
2013-12-25 00:06:00,26.5,11.2,30.21,NE,39,3.5,3.5,52,0.00,-RA,OVC,0.00,WeatherDisplay:10.37,2013-12-25 07:06:00,
2013-12-25 00:11:00,26.4,11.1,30.21,North,349,5.8,5.8,52,0.00,-RA,OVC,0.00,WeatherDisplay:10.37,2013-12-25 07:11:00,
2013-12-25 00:16:00,26.3,11.5,30.21,NE,52,2.3,2.3,53,0.00,-RA,OVC,0.00,WeatherDisplay:10.37,2013-12-25 07:16:00,
2013-12-25 00:20:00,26.3,11.9,30.21,NE,52,1.1,1.1,54,0.00,-RA,OVC,0.00,WeatherDisplay:10.37,2013-12-25 07:20:00,
2013-12-25 00:25:00,26.0,11.6,30.21,NE,52,0.0,0.0,54,0.00,-RA,OVC,0.00,WeatherDisplay:10.37,2013-12-25 07:25:00,
2013-12-25 00:30:00,25.7,11.7,30.21,NE,52,0.0,0.0,55,0.00,-RA,OVC,0.00,WeatherDisplay:10.37,2013-12-25 07:30:00,
2013-12-25 00:35:00,25.3,11.4,30.21,NE,52,1.1,0.0,55,0.00,-RA,OVC,0.00,WeatherDisplay:10.37,2013-12-25 07:35:00,
2013-12-25 00:40:00,25.1,11.2,30.21,NE,52,1.1,0.0,55,0.00,-RA,OVC,0.00,WeatherDisplay:10.37,2013-12-25 07:40:00,
2013-12-25 00:45:00,24.9,11.4,30.21,NE,52,2.3,0.0,56,0.00,-RA,OVC,0.00,WeatherDisplay:10.37,2013-12-25 07:45:00,
2013-12-25 00:50:00,24.7,10.8,30.21,NE,52,0.0,0.0,55,0.00,-RA,OVC,0.00,WeatherDisplay:10.37,2013-12-25 07:50:00,
2013-12-25 00:55:00,24.5,10.6,30.21,NE,52,0.0,0.1,55,0.00,-RA,OVC,0.00,WeatherDisplay:10.37,2013-12-25 07:55:00,
2013-12-25 01:00:00,24.4,10.9,30.20,NE,52,0.0,0.0,56,0.00,-RA,OVC,0.00,WeatherDisplay:10.37,2013-12-25 08:00:00,
2013-12-25 01:05:00,24.3,10.8,30.20,NE,52,0.0,0.0,56,0.00,-RA,OVC,0.00,WeatherDisplay:10.37,2013-12-25 08:05:00,
2013-12-25 01:10:00,24.0,10.6,30.20,NE,52,0.0,0.0,56,0.00,-RA,OVC,0.00,WeatherDisplay:10.37,2013-12-25 08:10:00,
2013-12-25 01:15:00,23.8,10.4,30.20,NE,52,0.0,0.0,56,0.00,-RA,OVC,0.00,WeatherDisplay:10.37,2013-12-25 08:15:00,
2013-12-25 01:20:00,23.5,10.5,30.20,NE,52,1.0,1.0,57,0.00,-RA,OVC,0.00,WeatherDisplay:10.37,2013-12-25 08:20:00,
2013-12-25 01:25:00,23.2,10.6,30.21,NE,52,0.0,0.0,58,0.00,-RA,OVC,0.00,WeatherDisplay:10.37,2013-12-25 08:25:00,
2013-12-25 01:30:00,22.9,10.3,30.21,NE,52,0.0,0.0,58,0.00,-RA,OVC,0.00,WeatherDisplay:10.37,2013-12-25 08:30:00,
2013-12-25 01:35:00,22.8,10.2,30.21,NE,52,2.3,0.0,58,0.00,-RA,OVC,0.00,WeatherDisplay:10.37,2013-12-25 08:35:00,
2013-12-25 01:40:00,22.7,10.1,30.21,NE,52,0.0,0.0,58,0.00,-RA,OVC,0.00,WeatherDisplay:10.37,2013-12-25 08:40:00,
2013-12-25 01:45:00,22.5,9.5,30.21,NE,52,1.1,1.1,57,0.00,-RA,OVC,0.00,WeatherDisplay:10.37,2013-12-25 08:45:00,
2013-12-25 01:50:00,22.6,9.6,30.21,NE,52,0.0,0.0,57,0.00,-RA,OVC,0.00,WeatherDisplay:10.37,2013-12-25 08:50:00,
2013-12-25 01:55:00,22.6,9.6,30.21,NE,52,0.0,0.8,57,0.00,-RA,OVC,0.00,WeatherDisplay:10.37,2013-12-25 08:55:00,
2013-12-25 02:00:00,22.7,9.3,30.21,NE,52,0.0,0.8,56,0.00,-RA,OVC,0.00,WeatherDisplay:10.37,2013-12-25 09:00:00,
2013-12-25 02:05:00,22.7,9.3,30.21,NE,52,0.0,0.0,56,0.00,-RA,OVC,0.00,WeatherDisplay:10.37,2013-12-25 09:05:00,
2013-12-25 02:10:00,22.7,8.5,30.21,NE,52,1.1,1.1,54,0.00,-RA,OVC,0.00,WeatherDisplay:10.37,2013-12-25 09:10:00,
2013-12-25 02:15:00,22.8,8.6,30.21,NE,52,2.3,0.0,54,0.00,-RA,OVC,0.00,WeatherDisplay:10.37,2013-12-25 09:15:00,
2013-12-25 02:20:00,22.7,8.5,30.21,NE,52,0.0,0.0,54,0.00,-RA,OVC,0.00,WeatherDisplay:10.37,2013-12-25 09:20:00,
2013-12-25 02:25:00,22.5,7.5,30.22,NE,52,0.0,0.0,52,0.00,-RA,OVC,0.00,WeatherDisplay:10.37,2013-12-25 09:25:00,
2013-12-25 02:30:00,22.4,7.0,30.22,NE,52,2.3,0.0,51,0.00,-RA,OVC,0.00,WeatherDisplay:10.37,2013-12-25 09:30:00,
2013-12-25 02:35:00,22.6,6.7,30.22,NE,52,2.3,2.3,50,0.00,-RA,OVC,0.00,WeatherDisplay:10.37,2013-12-25 09:35:00,
2013-12-25 02:40:00,22.7,7.3,30.22,NE,52,0.0,0.0,51,0.00,-RA,OVC,0.00,WeatherDisplay:10.37,2013-12-25 09:40:00,
2013-12-25 02:45:00,22.6,7.2,30.22,NE,52,0.0,0.0,51,0.00,-RA,OVC,0.00,WeatherDisplay:10.37,2013-12-25 09:45:00,
2013-12-25 02:50:00,22.5,6.6,30.22,NE,52,0.0,0.1,50,0.00,-RA,OVC,0.00,WeatherDisplay:10.37,2013-12-25 09:50:00,
2013-12-25 02:55:00,22.6,6.7,30.22,NE,52,0.0,0.0,50,0.00,-RA,OVC,0.00,WeatherDisplay:10.37,2013-12-25 09:55:00,
2013-12-25 03:00:00,22.7,6.4,30.22,NE,52,2.3,2.3,49,0.00,-RA,OVC,0.00,WeatherDisplay:10.37,2013-12-25 10:00:00,
2013-12-25 03:05:00,22.8,7.4,30.22,NE,52,0.0,0.0,51,0.00,-RA,OVC,0.00,WeatherDisplay:10.37,2013-12-25 10:05:00,
2013-12-25 03:10:00,22.5,7.1,30.22,NE,52,0.0,0.0,51,0.00,-RA,OVC,0.00,WeatherDisplay:10.37,2013-12-25 10:10:00,
2013-12-25 03:15:00,22.2,6.8,30.22,NE,52,0.0,0.0,51,0.00,-RA,OVC,0.00,WeatherDisplay:10.37,2013-12-25 10:15:00,
2013-12-25 03:20:00,22.0,6.6,30.22,NE,52,1.1,1.1,51,0.00,-RA,OVC,0.00,WeatherDisplay:10.37,2013-12-25 10:20:00,
2013-12-25 03:25:00,21.9,6.5,30.22,SSE,153,4.0,4.0,51,0.00,-RA,OVC,0.00,WeatherDisplay:10.37,2013-12-25 10:25:00,
2013-12-25 03:30:00,21.8,6.8,30.22,SSE,156,2.3,0.0,52,0.00,-RA,OVC,0.00,WeatherDisplay:10.37,2013-12-25 10:30:00,
2013-12-25 03:35:00,21.7,7.2,30.24,SSE,156,0.0,0.0,53,0.00,-RA,OVC,0.00,WeatherDisplay:10.37,2013-12-25 10:35:00,
2013-12-25 03:40:00,21.6,6.7,30.24,SSE,156,0.0,0.0,52,0.00,-RA,OVC,0.00,WeatherDisplay:10.37,2013-12-25 10:40:00,
2013-12-25 03:45:00,21.3,7.2,30.24,SSE,156,1.1,1.1,54,0.00,-RA,OVC,0.00,WeatherDisplay:10.37,2013-12-25 10:45:00,
2013-12-25 03:50:00,21.1,7.0,30.24,SSE,156,0.0,0.0,54,0.00,-RA,OVC,0.00,WeatherDisplay:10.37,2013-12-25 10:50:00,
2013-12-25 03:55:00,21.0,6.1,30.24,SSE,156,3.5,3.5,52,0.00,-RA,OVC,0.00,WeatherDisplay:10.37,2013-12-25 10:55:00,
2013-12-25 04:00:00,21.5,6.6,30.24,SSE,157,4.6,4.6,52,0.00,-RA,OVC,0.00,WeatherDisplay:10.37,2013-12-25 11:00:00,
2013-12-25 04:05:00,22.1,7.1,30.24,SSE,157,0.0,0.0,52,0.00,-RA,OVC,0.00,WeatherDisplay:10.37,2013-12-25 11:05:00,
2013-12-25 04:10:00,22.6,8.8,30.24,SSE,163,4.6,4.6,55,0.00,-RA,OVC,0.00,WeatherDisplay:10.37,2013-12-25 11:10:00,
2013-12-25 04:15:00,23.2,10.2,30.24,SSE,156,3.5,3.5,57,0.00,-RA,OVC,0.00,WeatherDisplay:10.37,2013-12-25 11:15:00,
2013-12-25 04:20:00,23.7,11.1,30.24,SSE,157,3.5,3.5,58,0.00,-RA,OVC,0.00,WeatherDisplay:10.37,2013-12-25 11:20:00,
2013-12-25 04:25:00,24.0,11.0,30.24,SSE,157,2.3,2.3,57,0.00,-RA,OVC,0.00,WeatherDisplay:10.37,2013-12-25 11:25:00,
2013-12-25 04:30:00,24.2,10.7,30.24,SSE,157,0.0,0.0,56,0.00,-RA,OVC,0.00,WeatherDisplay:10.37,2013-12-25 11:30:00,
2013-12-25 04:35:00,24.3,10.8,30.24,SSE,157,1.1,1.1,56,0.00,-RA,OVC,0.00,WeatherDisplay:10.37,2013-12-25 11:35:00,
2013-12-25 04:40:00,24.2,10.7,30.24,SSE,157,0.0,0.0,56,0.00,-RA,OVC,0.00,WeatherDisplay:10.37,2013-12-25 11:40:00,
2013-12-25 04:45:00,23.9,10.9,30.25,SSE,157,0.0,0.0,57,0.00,-RA,OVC,0.00,WeatherDisplay:10.37,2013-12-25 11:45:00,
2013-12-25 04:50:00,23.5,10.9,30.25,SSE,157,2.3,2.3,58,0.00,-RA,OVC,0.00,WeatherDisplay:10.37,2013-12-25 11:50:00,
2013-12-25 04:55:00,23.1,10.5,30.25,SSE,157,2.3,2.3,58,0.00,-RA,OVC,0.00,WeatherDisplay:10.37,2013-12-25 11:55:00,
2013-12-25 05:00:00,22.7,10.5,30.25,SSE,157,0.0,0.0,59,0.00,-RA,OVC,0.00,WeatherDisplay:10.37,2013-12-25 12:00:00,
2013-12-25 05:05:00,22.5,10.3,30.25,SSE,157,0.0,0.0,59,0.00,-RA,OVC,0.00,WeatherDisplay:10.37,2013-12-25 12:05:00,
2013-12-25 05:10:00,22.0,10.2,30.25,SSE,157,1.1,0.0,60,0.00,-RA,OVC,0.00,WeatherDisplay:10.37,2013-12-25 12:10:00,
2013-12-25 05:15:00,21.7,10.7,30.25,SW,229,0.0,0.0,62,0.00,-RA,OVC,0.00,WeatherDisplay:10.37,2013-12-25 12:15:00,
2013-12-25 05:20:00,21.4,10.7,30.25,SW,229,0.0,0.0,63,0.00,-RA,OVC,0.00,WeatherDisplay:10.37,2013-12-25 12:20:00,
2013-12-25 05:25:00,21.3,11.0,30.25,SW,229,0.0,0.0,64,0.00,-RA,OVC,0.00,WeatherDisplay:10.37,2013-12-25 12:25:00,
2013-12-25 05:30:00,21.2,10.6,30.25,SW,229,0.0,0.0,63,0.00,-RA,OVC,0.00,WeatherDisplay:10.37,2013-12-25 12:30:00,
2013-12-25 05:35:00,20.9,10.6,30.25,SW,227,2.3,2.3,64,0.00,-RA,OVC,0.00,WeatherDisplay:10.37,2013-12-25 12:35:00,
2013-12-25 05:40:00,20.8,10.5,30.25,SW,221,0.0,0.0,64,0.00,-RA,OVC,0.00,WeatherDisplay:10.37,2013-12-25 12:40:00,
2013-12-25 05:45:00,20.6,10.3,30.26,SW,221,0.0,0.0,64,0.00,-RA,OVC,0.00,WeatherDisplay:10.37,2013-12-25 12:45:00,
2013-12-25 05:50:00,20.4,10.5,30.26,SW,221,0.0,0.0,65,0.00,-RA,OVC,0.00,WeatherDisplay:10.37,2013-12-25 12:50:00,
2013-12-25 05:55:00,20.1,10.6,30.26,SW,221,0.0,0.0,66,0.00,-RA,OVC,0.00,WeatherDisplay:10.37,2013-12-25 12:55:00,
2013-12-25 06:00:00,19.8,10.6,30.26,SW,221,0.0,0.0,67,0.00,-RA,OVC,0.00,WeatherDisplay:10.37,2013-12-25 13:00:00,
2013-12-25 06:05:00,19.8,10.9,30.26,SW,221,2.3,2.3,68,0.00,-RA,OVC,0.00,WeatherDisplay:10.37,2013-12-25 13:05:00,
2013-12-25 06:10:00,19.9,10.7,30.26,SW,222,2.0,2.0,67,0.00,-RA,OVC,0.00,WeatherDisplay:10.37,2013-12-25 13:10:00,
2013-12-25 06:15:00,20.2,11.0,30.26,SW,222,0.0,0.0,67,0.00,-RA,OVC,0.00,WeatherDisplay:10.37,2013-12-25 13:15:00,
2013-12-25 06:20:00,20.3,10.7,30.26,SW,222,0.0,0.1,66,0.00,-RA,OVC,0.00,WeatherDisplay:10.37,2013-12-25 13:20:00,
2013-12-25 06:25:00,20.3,10.4,30.26,SW,222,0.0,0.0,65,0.00,-RA,OVC,0.00,WeatherDisplay:10.37,2013-12-25 13:25:00,
2013-12-25 06:30:00,20.2,10.3,30.26,SW,222,0.0,0.0,65,0.00,-RA,OVC,0.00,WeatherDisplay:10.37,2013-12-25 13:30:00,
2013-12-25 06:35:00,20.1,10.2,30.26,SW,222,0.0,0.0,65,0.00,-RA,OVC,0.00,WeatherDisplay:10.37,2013-12-25 13:35:00,
2013-12-25 06:40:00,19.8,10.3,30.26,SW,222,0.0,0.0,66,0.00,-RA,OVC,0.00,WeatherDisplay:10.37,2013-12-25 13:40:00,
2013-12-25 06:45:00,19.5,10.0,30.26,SW,222,0.0,0.0,66,0.00,-RA,OVC,0.00,WeatherDisplay:10.37,2013-12-25 13:45:00,
2013-12-25 06:50:00,19.4,10.6,30.26,SW,222,2.3,0.0,68,0.00,-RA,OVC,0.00,WeatherDisplay:10.37,2013-12-25 13:50:00,
2013-12-25 06:55:00,19.5,10.6,30.26,SW,222,2.3,2.3,68,0.00,-RA,OVC,0.00,WeatherDisplay:10.37,2013-12-25 13:55:00,
2013-12-25 07:00:00,19.8,10.6,30.26,SW,222,0.0,0.0,67,0.00,-RA,OVC,0.00,WeatherDisplay:10.37,2013-12-25 14:00:00,
2013-12-25 07:05:00,19.8,10.3,30.26,SW,222,0.0,0.0,66,0.00,-RA,OVC,0.00,WeatherDisplay:10.37,2013-12-25 14:05:00,
2013-12-25 07:10:00,19.7,10.2,30.26,SW,222,1.1,1.1,66,0.00,-RA,OVC,0.00,WeatherDisplay:10.37,2013-12-25 14:10:00,
2013-12-25 07:15:00,19.5,10.0,30.26,SW,222,0.0,0.0,66,0.00,-RA,OVC,0.00,WeatherDisplay:10.37,2013-12-25 14:15:00,
2013-12-25 07:20:00,19.4,9.9,30.26,SW,222,0.0,0.0,66,0.00,-RA,OVC,0.00,WeatherDisplay:10.37,2013-12-25 14:20:00,
2013-12-25 07:25:00,19.1,9.6,30.30,SW,222,0.0,0.0,66,0.00,-RA,OVC,0.00,WeatherDisplay:10.37,2013-12-25 14:25:00,
2013-12-25 07:30:00,19.1,9.9,30.30,SW,222,0.0,0.0,67,0.00,-RA,OVC,0.00,WeatherDisplay:10.37,2013-12-25 14:30:00,
2013-12-25 07:35:00,19.4,10.2,30.30,SW,222,0.0,0.0,67,0.00,-RA,OVC,0.00,WeatherDisplay:10.37,2013-12-25 14:35:00,
2013-12-25 07:40:00,19.5,10.0,30.30,SW,222,0.0,0.0,66,0.00,-RA,OVC,0.00,WeatherDisplay:10.37,2013-12-25 14:40:00,
2013-12-25 07:45:00,19.7,9.8,30.30,SW,222,0.0,0.0,65,0.00,-RA,OVC,0.00,WeatherDisplay:10.37,2013-12-25 14:45:00,
2013-12-25 07:50:00,20.0,9.4,30.30,SW,222,0.0,0.0,63,0.00,-RA,OVC,0.00,WeatherDisplay:10.37,2013-12-25 14:50:00,
2013-12-25 07:55:00,20.7,9.4,30.30,SW,221,2.3,2.3,61,0.00,-RA,OVC,0.00,WeatherDisplay:10.37,2013-12-25 14:55:00,
2013-12-25 08:00:00,21.6,9.5,30.30,SW,221,1.1,1.1,59,0.00,-RA,OVC,0.00,WeatherDisplay:10.37,2013-12-25 15:00:00,
2013-12-25 08:05:00,22.6,9.6,30.30,SW,221,1.1,1.1,57,0.00,-RA,OVC,0.00,WeatherDisplay:10.37,2013-12-25 15:05:00,
2013-12-25 08:10:00,23.4,9.2,30.30,SW,222,3.5,3.5,54,0.00,-RA,OVC,0.00,WeatherDisplay:10.37,2013-12-25 15:10:00,
2013-12-25 08:15:00,24.3,10.0,30.30,SW,222,0.0,0.0,54,0.00,-RA,OVC,0.00,WeatherDisplay:10.37,2013-12-25 15:15:00,
2013-12-25 08:20:00,24.9,10.2,30.30,SW,222,1.1,0.0,53,0.00,-RA,OVC,0.00,WeatherDisplay:10.37,2013-12-25 15:20:00,
2013-12-25 08:25:00,25.7,9.6,30.30,SW,222,0.0,0.0,50,0.00,-RA,OVC,0.00,WeatherDisplay:10.37,2013-12-25 15:25:00,
2013-12-25 08:30:00,26.4,10.3,30.30,SW,222,1.1,0.0,50,0.00,-RA,OVC,0.00,WeatherDisplay:10.37,2013-12-25 15:30:00,
2013-12-25 08:35:00,27.3,10.6,30.30,ENE,63,2.0,2.0,49,0.00,-RA,OVC,0.00,WeatherDisplay:10.37,2013-12-25 15:35:00,
2013-12-25 08:40:00,27.9,10.2,30.30,ENE,63,2.3,2.3,47,0.00,-RA,OVC,0.00,WeatherDisplay:10.37,2013-12-25 15:40:00,
2013-12-25 08:45:00,28.7,10.0,30.30,ENE,63,3.5,3.5,45,0.00,-RA,OVC,0.00,WeatherDisplay:10.37,2013-12-25 15:45:00,
2013-12-25 08:50:00,29.1,10.4,30.30,NE,53,4.0,4.0,45,0.00,-RA,OVC,0.00,WeatherDisplay:10.37,2013-12-25 15:50:00,
2013-12-25 08:55:00,29.6,10.3,30.30,NE,38,3.5,3.5,44,0.00,-RA,OVC,0.00,WeatherDisplay:10.37,2013-12-25 15:55:00,
2013-12-25 09:00:00,30.1,10.3,30.30,NE,39,3.5,3.5,43,0.00,-RA,OVC,0.00,WeatherDisplay:10.37,2013-12-25 16:00:00,
2013-12-25 09:05:00,30.6,10.2,30.30,NE,38,3.5,3.5,42,0.00,-RA,OVC,0.00,WeatherDisplay:10.37,2013-12-25 16:05:00,
2013-12-25 09:10:00,31.1,10.1,30.30,NNE,29,3.5,3.5,41,0.00,-RA,OVC,0.00,WeatherDisplay:10.37,2013-12-25 16:10:00,
2013-12-25 09:15:00,31.7,10.1,30.30,NNE,22,3.5,3.5,40,0.00,-RA,OVC,0.00,WeatherDisplay:10.37,2013-12-25 16:15:00,
2013-12-25 09:20:00,32.2,10.0,30.30,NNE,27,4.6,4.6,39,0.00,-RA,OVC,0.00,WeatherDisplay:10.37,2013-12-25 16:20:00,
2013-12-25 09:25:00,32.6,10.3,30.30,NNE,12,6.0,6.0,39,0.00,-RA,OVC,0.00,WeatherDisplay:10.37,2013-12-25 16:25:00,
2013-12-25 09:30:00,32.9,10.6,30.30,NNE,24,4.6,4.6,39,0.00,-RA,OVC,0.00,WeatherDisplay:10.37,2013-12-25 16:30:00,
2013-12-25 09:35:00,33.3,9.8,30.30,NNE,32,4.6,4.6,37,0.00,-RA,OVC,0.00,WeatherDisplay:10.37,2013-12-25 16:35:00,
2013-12-25 09:40:00,33.6,10.1,30.30,NNE,18,6.9,6.9,37,0.00,-RA,OVC,0.00,WeatherDisplay:10.37,2013-12-25 16:40:00,
2013-12-25 09:45:00,33.4,9.9,30.31,North,5,5.8,5.8,37,0.00,-RA,OVC,0.00,WeatherDisplay:10.37,2013-12-25 16:45:00,
2013-12-25 09:50:00,33.2,10.3,30.31,NNE,28,5.8,5.8,38,0.00,-RA,OVC,0.00,WeatherDisplay:10.37,2013-12-25 16:50:00,
2013-12-25 09:55:00,33.2,9.1,30.31,NNE,25,4.6,4.6,36,0.00,-RA,OVC,0.00,WeatherDisplay:10.37,2013-12-25 16:55:00,
2013-12-25 10:00:00,33.5,10.0,30.31,NE,46,6.0,6.0,37,0.00,-RA,OVC,0.00,WeatherDisplay:10.37,2013-12-25 17:00:00,
2013-12-25 10:05:00,33.8,9.0,30.31,North,360,5.8,5.8,35,0.00,-RA,OVC,0.00,WeatherDisplay:10.37,2013-12-25 17:05:00,
2013-12-25 10:10:00,34.3,8.8,30.31,NE,51,9.2,9.2,34,0.00,-RA,OVC,0.00,WeatherDisplay:10.37,2013-12-25 17:10:00,
2013-12-25 10:15:00,34.8,7.9,30.31,NNE,13,9.2,9.2,32,0.00,-RA,OVC,0.00,WeatherDisplay:10.37,2013-12-25 17:15:00,
2013-12-25 10:20:00,35.2,7.5,30.31,North,360,5.8,5.8,31,0.00,-RA,OVC,0.00,WeatherDisplay:10.37,2013-12-25 17:20:00,
2013-12-25 10:25:00,35.6,7.2,30.31,North,5,9.2,9.2,30,0.00,-RA,OVC,0.00,WeatherDisplay:10.37,2013-12-25 17:25:00,
2013-12-25 10:30:00,36.1,6.1,30.31,North,355,10.4,10.4,28,0.00,-RA,OVC,0.00,WeatherDisplay:10.37,2013-12-25 17:30:00,
2013-12-25 10:35:00,36.4,5.5,30.31,NE,36,13.8,13.8,27,0.00,-RA,OVC,0.00,WeatherDisplay:10.37,2013-12-25 17:35:00,
2013-12-25 10:40:00,36.7,5.8,30.31,NNE,14,11.5,11.5,27,0.00,-RA,OVC,0.00,WeatherDisplay:10.37,2013-12-25 17:40:00,
2013-12-25 10:45:00,37.0,6.1,30.31,North,10,6.9,6.9,27,0.00,-RA,OVC,0.00,WeatherDisplay:10.37,2013-12-25 17:45:00,
2013-12-25 10:50:00,37.3,5.5,30.31,North,360,8.1,8.1,26,0.00,-RA,OVC,0.00,WeatherDisplay:10.37,2013-12-25 17:50:00,
2013-12-25 10:55:00,37.5,5.7,30.31,North,9,5.8,5.8,26,0.00,-RA,OVC,0.00,WeatherDisplay:10.37,2013-12-25 17:55:00,
2013-12-25 11:00:00,38.0,5.2,30.31,NNW,331,6.9,6.9,25,0.00,-RA,OVC,0.00,WeatherDisplay:10.37,2013-12-25 18:00:00,
2013-12-25 11:05:00,38.5,5.7,30.31,NNW,347,6.9,6.9,25,0.00,-RA,OVC,0.00,WeatherDisplay:10.37,2013-12-25 18:05:00,
2013-12-25 11:10:00,38.6,5.7,30.31,NNE,15,11.5,11.5,25,0.00,-RA,OVC,0.00,WeatherDisplay:10.37,2013-12-25 18:10:00,
2013-12-25 11:15:00,38.9,5.1,30.31,NNW,344,6.9,6.9,24,0.00,-RA,OVC,0.00,WeatherDisplay:10.37,2013-12-25 18:15:00,
2013-12-25 11:20:00,39.2,6.3,30.31,North,350,6.0,6.0,25,0.00,-RA,OVC,0.00,WeatherDisplay:10.37,2013-12-25 18:20:00,
2013-12-25 11:25:00,39.5,6.5,30.31,North,360,10.4,10.4,25,0.00,-RA,OVC,0.00,WeatherDisplay:10.37,2013-12-25 18:25:00,
2013-12-25 11:30:00,39.6,5.7,30.31,NNW,340,10.4,10.4,24,0.00,-RA,OVC,0.00,WeatherDisplay:10.37,2013-12-25 18:30:00,
2013-12-25 11:35:00,39.7,5.8,30.31,NNW,331,9.0,9.0,24,0.00,-RA,OVC,0.00,WeatherDisplay:10.37,2013-12-25 18:35:00,
2013-12-25 11:40:00,40.0,6.9,30.31,North,360,6.9,6.9,25,0.00,-RA,OVC,0.00,WeatherDisplay:10.37,2013-12-25 18:40:00,
2013-12-25 11:45:00,40.6,7.5,30.31,North,5,6.9,6.9,25,0.00,-RA,OVC,0.00,WeatherDisplay:10.37,2013-12-25 18:45:00,
2013-12-25 11:50:00,40.7,6.6,30.31,North,5,4.6,4.6,24,0.00,-RA,OVC,0.00,WeatherDisplay:10.37,2013-12-25 18:50:00,
2013-12-25 11:55:00,41.0,6.9,30.31,NNW,344,6.9,6.9,24,0.00,-RA,OVC,0.00,WeatherDisplay:10.37,2013-12-25 18:55:00,
2013-12-25 12:00:00,41.2,7.1,30.31,NW,323,5.8,5.8,24,0.00,-RA,OVC,0.00,WeatherDisplay:10.37,2013-12-25 19:00:00,
2013-12-25 12:05:00,41.6,7.4,30.31,NNW,338,4.6,4.6,24,0.00,-RA,OVC,0.00,WeatherDisplay:10.37,2013-12-25 19:05:00,
2013-12-25 12:10:00,41.8,6.6,30.31,NNW,342,4.6,4.6,23,0.00,-RA,OVC,0.00,WeatherDisplay:10.37,2013-12-25 19:10:00,
2013-12-25 12:15:00,42.1,6.9,30.31,NW,325,5.8,5.8,23,0.00,-RA,OVC,0.00,WeatherDisplay:10.37,2013-12-25 19:15:00,
2013-12-25 12:20:00,42.4,7.2,30.31,North,351,5.8,5.8,23,0.00,-RA,OVC,0.00,WeatherDisplay:10.37,2013-12-25 19:20:00,
2013-12-25 12:25:00,42.7,6.4,30.31,North,5,5.8,5.8,22,0.00,-RA,OVC,0.00,WeatherDisplay:10.37,2013-12-25 19:25:00,
2013-12-25 12:30:00,42.9,6.6,30.31,NNW,347,4.6,4.6,22,0.00,-RA,OVC,0.00,WeatherDisplay:10.37,2013-12-25 19:30:00,
2013-12-25 12:35:00,43.1,6.8,30.31,NNE,25,9.2,9.2,22,0.00,-RA,OVC,0.00,WeatherDisplay:10.37,2013-12-25 19:35:00,
2013-12-25 12:40:00,43.6,7.2,30.31,North,11,3.5,3.5,22,0.00,-RA,OVC,0.00,WeatherDisplay:10.37,2013-12-25 19:40:00,
2013-12-25 12:44:00,43.9,6.4,30.31,NNE,13,4.6,4.6,21,0.00,-RA,OVC,0.00,WeatherDisplay:10.37,2013-12-25 19:44:00,
2013-12-25 12:49:00,44.1,6.6,30.31,North,11,4.6,4.6,21,0.00,-RA,OVC,0.00,WeatherDisplay:10.37,2013-12-25 19:49:00,
2013-12-25 12:54:00,44.4,6.8,30.31,NE,37,4.6,4.6,21,0.00,-RA,OVC,0.00,WeatherDisplay:10.37,2013-12-25 19:54:00,
2013-12-25 12:59:00,44.5,6.9,30.31,North,355,3.5,3.5,21,0.00,-RA,OVC,0.00,WeatherDisplay:10.37,2013-12-25 19:59:00,
2013-12-25 13:04:00,44.3,6.7,30.31,NNW,345,4.6,4.6,21,0.00,-RA,OVC,0.00,WeatherDisplay:10.37,2013-12-25 20:04:00,
2013-12-25 13:09:00,44.5,6.9,30.31,North,355,3.5,3.5,21,0.00,-RA,OVC,0.00,WeatherDisplay:10.37,2013-12-25 20:09:00,
2013-12-25 13:14:00,44.9,5.1,30.31,North,360,4.0,4.0,19,0.00,-RA,OVC,0.00,WeatherDisplay:10.37,2013-12-25 20:14:00,
2013-12-25 13:19:00,44.8,6.1,30.31,North,360,5.8,5.8,20,0.00,-RA,OVC,0.00,WeatherDisplay:10.37,2013-12-25 20:19:00,
2013-12-25 13:24:00,44.8,6.1,30.31,NNE,16,2.3,2.3,20,0.00,-RA,OVC,0.00,WeatherDisplay:10.37,2013-12-25 20:24:00,
2013-12-25 13:29:00,45.2,6.4,30.31,NNE,16,0.0,0.0,20,0.00,-RA,OVC,0.00,WeatherDisplay:10.37,2013-12-25 20:29:00,
2013-12-25 13:34:00,45.8,5.8,30.23,North,9,4.0,4.0,19,0.00,-RA,OVC,0.00,WeatherDisplay:10.37,2013-12-25 20:34:00,
2013-12-25 13:39:00,46.0,6.0,30.23,North,355,3.5,3.5,19,0.00,-RA,OVC,0.00,WeatherDisplay:10.37,2013-12-25 20:39:00,
2013-12-25 13:44:00,46.0,4.8,30.23,NNW,348,2.3,2.3,18,0.00,-RA,OVC,0.00,WeatherDisplay:10.37,2013-12-25 20:44:00,
2013-12-25 13:49:00,45.7,5.7,30.23,West,263,3.5,3.5,19,0.00,-RA,OVC,0.00,WeatherDisplay:10.37,2013-12-25 20:49:00,
2013-12-25 13:54:00,46.0,6.0,30.22,West,276,3.5,3.5,19,0.00,-RA,OVC,0.00,WeatherDisplay:10.37,2013-12-25 20:54:00,
2013-12-25 13:59:00,46.2,6.1,30.22,West,276,2.3,2.3,19,0.00,-RA,OVC,0.00,WeatherDisplay:10.37,2013-12-25 20:59:00,
2013-12-25 14:04:00,46.5,5.2,30.22,West,277,3.5,3.5,18,0.00,-RA,OVC,0.00,WeatherDisplay:10.37,2013-12-25 21:04:00,
2013-12-25 14:09:00,46.5,5.2,30.22,West,273,3.5,3.5,18,0.00,-RA,OVC,0.00,WeatherDisplay:10.37,2013-12-25 21:09:00,
2013-12-25 14:14:00,46.2,4.9,30.22,West,274,2.3,2.3,18,0.00,-RA,OVC,0.00,WeatherDisplay:10.37,2013-12-25 21:14:00,
2013-12-25 14:19:00,46.4,5.1,30.22,West,277,3.5,3.5,18,0.00,-RA,OVC,0.00,WeatherDisplay:10.37,2013-12-25 21:19:00,
2013-12-25 14:24:00,46.7,6.5,30.22,West,277,0.0,0.0,19,0.00,-RA,OVC,0.00,WeatherDisplay:10.37,2013-12-25 21:24:00,
2013-12-25 14:29:00,46.9,5.5,30.22,West,277,2.3,2.3,18,0.00,-RA,OVC,0.00,WeatherDisplay:10.37,2013-12-25 21:29:00,
2013-12-25 14:34:00,46.8,5.4,30.22,West,277,3.5,3.5,18,0.00,-RA,OVC,0.00,WeatherDisplay:10.37,2013-12-25 21:34:00,
2013-12-25 14:39:00,46.9,5.5,30.22,WNW,282,3.5,3.5,18,0.00,-RA,OVC,0.00,WeatherDisplay:10.37,2013-12-25 21:39:00,
2013-12-25 14:44:00,46.8,5.4,30.22,WNW,282,4.6,4.6,18,0.00,-RA,OVC,0.00,WeatherDisplay:10.37,2013-12-25 21:44:00,
2013-12-25 14:49:00,46.7,5.4,30.22,WNW,282,2.3,2.3,18,0.00,-RA,OVC,0.00,WeatherDisplay:10.37,2013-12-25 21:49:00,
2013-12-25 14:54:00,46.5,5.2,30.22,WNW,282,4.6,4.6,18,0.00,-RA,OVC,0.00,WeatherDisplay:10.37,2013-12-25 21:54:00,
2013-12-25 14:59:00,46.2,4.9,30.22,WNW,282,2.3,0.0,18,0.00,-RA,OVC,0.00,WeatherDisplay:10.37,2013-12-25 21:59:00,
2013-12-25 15:04:00,46.2,4.9,30.22,WNW,283,3.5,3.5,18,0.00,-RA,OVC,0.00,WeatherDisplay:10.37,2013-12-25 22:04:00,
2013-12-25 15:09:00,46.2,4.9,30.22,WNW,283,2.0,2.0,18,0.00,-RA,OVC,0.00,WeatherDisplay:10.37,2013-12-25 22:09:00,
2013-12-25 15:14:00,46.0,4.8,30.22,WNW,282,0.0,0.6,18,0.00,-RA,OVC,0.00,WeatherDisplay:10.37,2013-12-25 22:14:00,
2013-12-25 15:19:00,46.0,4.8,30.22,WNW,282,1.1,1.1,18,0.00,-RA,OVC,0.00,WeatherDisplay:10.37,2013-12-25 22:19:00,
2013-12-25 15:24:00,45.9,4.7,30.22,West,277,1.0,1.0,18,0.00,-RA,OVC,0.00,WeatherDisplay:10.37,2013-12-25 22:24:00,
2013-12-25 15:29:00,45.7,5.7,30.22,West,275,1.1,0.0,19,0.00,-RA,OVC,0.00,WeatherDisplay:10.37,2013-12-25 22:29:00,
2013-12-25 15:34:00,45.7,5.7,30.22,West,275,1.1,1.1,19,0.00,-RA,OVC,0.00,WeatherDisplay:10.37,2013-12-25 22:34:00,
2013-12-25 15:39:00,45.7,5.7,30.22,West,275,2.0,2.0,19,0.00,-RA,OVC,0.00,WeatherDisplay:10.37,2013-12-25 22:39:00,
2013-12-25 15:44:00,45.7,5.7,30.22,West,275,1.1,0.0,19,0.00,-RA,OVC,0.00,WeatherDisplay:10.37,2013-12-25 22:44:00,
2013-12-25 15:49:00,45.6,5.6,30.22,West,275,1.1,1.1,19,0.00,-RA,OVC,0.00,WeatherDisplay:10.37,2013-12-25 22:49:00,
2013-12-25 15:54:00,45.5,5.6,30.22,West,275,0.0,0.0,19,0.00,-RA,OVC,0.00,WeatherDisplay:10.37,2013-12-25 22:54:00,
2013-12-25 15:59:00,45.7,5.7,30.22,West,275,0.0,0.0,19,0.00,-RA,OVC,0.00,WeatherDisplay:10.37,2013-12-25 22:59:00,
2013-12-25 16:04:00,45.9,5.9,30.22,West,275,0.0,0.0,19,0.00,-RA,OVC,0.00,WeatherDisplay:10.37,2013-12-25 23:04:00,
2013-12-25 16:09:00,46.1,4.9,30.22,West,275,0.0,0.0,18,0.00,-RA,OVC,0.00,WeatherDisplay:10.37,2013-12-25 23:09:00,
2013-12-25 16:14:00,46.0,6.0,30.22,West,275,0.0,0.0,19,0.00,-RA,OVC,0.00,WeatherDisplay:10.37,2013-12-25 23:14:00,
2013-12-25 16:19:00,45.6,5.6,30.22,West,275,0.0,0.0,19,0.00,-RA,OVC,0.00,WeatherDisplay:10.37,2013-12-25 23:19:00,
2013-12-25 16:24:00,45.1,5.2,30.22,West,275,0.0,0.0,19,0.00,-RA,OVC,0.00,WeatherDisplay:10.37,2013-12-25 23:24:00,
2013-12-25 16:29:00,44.6,5.9,30.22,West,275,0.0,0.0,20,0.00,-RA,OVC,0.00,WeatherDisplay:10.37,2013-12-25 23:29:00,
2013-12-25 16:34:00,44.0,5.4,30.22,West,275,0.0,0.0,20,0.00,-RA,OVC,0.00,WeatherDisplay:10.37,2013-12-25 23:34:00,
2013-12-25 16:39:00,43.2,5.8,30.22,West,275,0.0,0.0,21,0.00,-RA,OVC,0.00,WeatherDisplay:10.37,2013-12-25 23:39:00,
2013-12-25 16:44:00,42.4,6.2,30.22,West,275,0.0,0.0,22,0.00,-RA,OVC,0.00,WeatherDisplay:10.37,2013-12-25 23:44:00,
2013-12-25 16:49:00,41.7,7.5,30.22,West,275,0.0,0.0,24,0.00,-RA,OVC,0.00,WeatherDisplay:10.37,2013-12-25 23:49:00,
2013-12-25 16:54:00,40.4,7.3,30.22,West,275,0.0,0.0,25,0.00,-RA,OVC,0.00,WeatherDisplay:10.37,2013-12-25 23:54:00,
2013-12-25 16:59:00,39.3,8.0,30.22,West,275,0.0,0.0,27,0.00,-RA,OVC,0.00,WeatherDisplay:10.37,2013-12-25 23:59:00,
2013-12-25 17:04:00,38.2,7.9,30.21,West,275,0.0,0.0,28,0.00,-RA,OVC,0.00,WeatherDisplay:10.37,2013-12-26 00:04:00,
2013-12-25 17:09:00,37.3,8.7,30.21,West,275,1.1,0.0,30,0.00,-RA,OVC,0.00,WeatherDisplay:10.37,2013-12-26 00:09:00,
2013-12-25 17:14:00,36.4,8.6,30.21,West,275,0.0,0.0,31,0.00,-RA,OVC,0.00,WeatherDisplay:10.37,2013-12-26 00:14:00,
2013-12-25 17:19:00,35.6,8.6,30.21,West,275,0.0,0.0,32,0.00,-RA,OVC,0.00,WeatherDisplay:10.37,2013-12-26 00:19:00,
2013-12-25 17:24:00,35.0,8.7,30.21,West,275,1.1,0.0,33,0.00,-RA,OVC,0.00,WeatherDisplay:10.37,2013-12-26 00:24:00,
2013-12-25 17:29:00,34.3,8.8,30.21,West,275,0.0,0.0,34,0.00,-RA,OVC,0.00,WeatherDisplay:10.37,2013-12-26 00:29:00,
2013-12-25 17:34:00,33.7,8.9,30.21,West,275,0.0,0.0,35,0.00,-RA,OVC,0.00,WeatherDisplay:10.37,2013-12-26 00:34:00,
2013-12-25 17:39:00,33.2,8.5,30.21,West,273,3.5,3.5,35,0.00,-RA,OVC,0.00,WeatherDisplay:10.37,2013-12-26 00:39:00,
2013-12-25 17:44:00,33.0,8.9,30.21,West,273,0.0,0.0,36,0.00,-RA,OVC,0.00,WeatherDisplay:10.37,2013-12-26 00:44:00,
2013-12-25 17:49:00,32.6,9.2,30.21,West,273,0.0,0.0,37,0.00,-RA,OVC,0.00,WeatherDisplay:10.37,2013-12-26 00:49:00,
2013-12-25 17:54:00,32.2,9.4,30.21,West,273,0.0,0.0,38,0.00,-RA,OVC,0.00,WeatherDisplay:10.37,2013-12-26 00:54:00,
2013-12-25 17:59:00,31.7,9.0,30.21,West,273,0.0,0.0,38,0.00,-RA,OVC,0.00,WeatherDisplay:10.37,2013-12-26 00:59:00,
2013-12-25 18:04:00,31.4,9.3,30.21,West,273,0.0,0.0,39,0.00,-RA,OVC,0.00,WeatherDisplay:10.37,2013-12-26 01:04:00,
2013-12-25 18:09:00,31.1,8.4,30.21,West,273,0.0,0.0,38,0.00,-RA,OVC,0.00,WeatherDisplay:10.37,2013-12-26 01:09:00,
2013-12-25 18:14:00,30.9,9.4,30.21,West,273,0.0,0.0,40,0.00,-RA,OVC,0.00,WeatherDisplay:10.37,2013-12-26 01:14:00,
2013-12-25 18:19:00,30.6,9.1,30.21,West,273,0.0,0.0,40,0.00,-RA,OVC,0.00,WeatherDisplay:10.37,2013-12-26 01:19:00,
2013-12-25 18:24:00,30.4,9.5,30.21,West,273,0.0,0.0,41,0.00,-RA,OVC,0.00,WeatherDisplay:10.37,2013-12-26 01:24:00,
2013-12-25 18:29:00,30.2,8.7,30.21,West,273,0.0,0.0,40,0.00,-RA,OVC,0.00,WeatherDisplay:10.37,2013-12-26 01:29:00,
2013-12-25 18:34:00,30.1,9.2,30.21,West,273,0.0,0.0,41,0.00,-RA,OVC,0.00,WeatherDisplay:10.37,2013-12-26 01:34:00,
2013-12-25 18:39:00,29.9,9.6,30.21,West,273,0.0,0.0,42,0.00,-RA,OVC,0.00,WeatherDisplay:10.37,2013-12-26 01:39:00,
2013-12-25 18:44:00,29.6,9.8,30.21,West,273,1.1,1.1,43,0.00,-RA,OVC,0.00,WeatherDisplay:10.37,2013-12-26 01:44:00,
2013-12-25 18:49:00,29.4,9.6,30.21,West,273,0.0,0.0,43,0.00,-RA,OVC,0.00,WeatherDisplay:10.37,2013-12-26 01:49:00,
2013-12-25 18:54:00,29.2,10.0,30.21,West,273,0.0,0.0,44,0.00,-RA,OVC,0.00,WeatherDisplay:10.37,2013-12-26 01:54:00,
2013-12-25 18:59:00,28.9,9.7,30.21,West,273,0.0,0.0,44,0.00,-RA,OVC,0.00,WeatherDisplay:10.37,2013-12-26 01:59:00,
2013-12-25 19:04:00,28.7,10.0,30.21,West,273,0.0,0.0,45,0.00,-RA,OVC,0.00,WeatherDisplay:10.37,2013-12-26 02:04:00,
2013-12-25 19:09:00,28.4,10.2,30.21,West,273,0.0,0.0,46,0.00,-RA,OVC,0.00,WeatherDisplay:10.37,2013-12-26 02:09:00,
2013-12-25 19:14:00,28.3,10.6,30.21,West,273,0.0,0.0,47,0.00,-RA,OVC,0.00,WeatherDisplay:10.37,2013-12-26 02:14:00,
2013-12-25 19:19:00,28.2,10.5,30.21,West,273,2.3,0.0,47,0.00,-RA,OVC,0.00,WeatherDisplay:10.37,2013-12-26 02:19:00,
2013-12-25 19:24:00,28.3,10.1,30.21,West,276,1.1,1.1,46,0.00,-RA,OVC,0.00,WeatherDisplay:10.37,2013-12-26 02:24:00,
2013-12-25 19:29:00,28.7,9.5,30.21,West,276,3.5,3.5,44,0.00,-RA,OVC,0.00,WeatherDisplay:10.37,2013-12-26 02:29:00,
2013-12-25 19:34:00,29.3,9.5,30.20,West,277,3.5,3.5,43,0.00,-RA,OVC,0.00,WeatherDisplay:10.37,2013-12-26 02:34:00,
2013-12-25 19:39:00,29.7,9.4,30.20,West,277,1.1,0.0,42,0.00,-RA,OVC,0.00,WeatherDisplay:10.37,2013-12-26 02:39:00,
2013-12-25 19:44:00,30.0,9.6,30.20,West,277,2.3,2.3,42,0.00,-RA,OVC,0.00,WeatherDisplay:10.37,2013-12-26 02:44:00,
2013-12-25 19:49:00,30.5,9.6,30.20,West,277,2.3,2.3,41,0.00,-RA,OVC,0.00,WeatherDisplay:10.37,2013-12-26 02:49:00,
2013-12-25 19:54:00,30.8,9.8,30.20,West,277,2.3,2.3,41,0.00,-RA,OVC,0.00,WeatherDisplay:10.37,2013-12-26 02:54:00,
2013-12-25 19:59:00,30.4,10.0,30.20,West,277,1.1,0.0,42,0.00,-RA,OVC,0.00,WeatherDisplay:10.37,2013-12-26 02:59:00,
2013-12-25 20:04:00,30.0,9.6,30.20,West,277,0.0,0.0,42,0.00,-RA,OVC,0.00,WeatherDisplay:10.37,2013-12-26 03:04:00,
2013-12-25 20:09:00,29.8,10.0,30.20,West,277,3.5,3.5,43,0.00,-RA,OVC,0.00,WeatherDisplay:10.37,2013-12-26 03:09:00,
2013-12-25 20:14:00,29.5,10.2,30.20,West,277,2.3,2.3,44,0.00,-RA,OVC,0.00,WeatherDisplay:10.37,2013-12-26 03:14:00,
2013-12-25 20:19:00,29.3,10.6,30.20,West,277,0.0,0.0,45,0.00,-RA,OVC,0.00,WeatherDisplay:10.37,2013-12-26 03:19:00,
2013-12-25 20:24:00,29.1,10.4,30.20,West,277,0.0,0.0,45,0.00,-RA,OVC,0.00,WeatherDisplay:10.37,2013-12-26 03:24:00,
2013-12-25 20:29:00,28.8,10.1,30.20,West,277,0.0,0.0,45,0.00,-RA,OVC,0.00,WeatherDisplay:10.37,2013-12-26 03:29:00,
2013-12-25 20:34:00,28.7,10.0,30.20,West,277,0.0,0.0,45,0.00,-RA,OVC,0.00,WeatherDisplay:10.37,2013-12-26 03:34:00,
2013-12-25 20:39:00,28.7,10.5,30.20,West,277,0.0,0.0,46,0.00,-RA,OVC,0.00,WeatherDisplay:10.37,2013-12-26 03:39:00,
2013-12-25 20:44:00,28.8,10.1,30.20,West,277,0.0,0.0,45,0.00,-RA,OVC,0.00,WeatherDisplay:10.37,2013-12-26 03:44:00,
2013-12-25 20:49:00,29.0,10.3,30.20,West,277,0.0,0.0,45,0.00,-RA,OVC,0.00,WeatherDisplay:10.37,2013-12-26 03:49:00,
2013-12-25 20:54:00,28.8,10.1,30.20,West,277,0.0,0.0,45,0.00,-RA,OVC,0.00,WeatherDisplay:10.37,2013-12-26 03:54:00,
2013-12-25 20:59:00,28.5,10.3,30.20,West,277,3.5,3.5,46,0.00,-RA,OVC,0.00,WeatherDisplay:10.37,2013-12-26 03:59:00,
2013-12-25 21:04:00,28.3,10.6,30.20,West,277,2.3,2.3,47,0.00,-RA,OVC,0.00,WeatherDisplay:10.37,2013-12-26 04:04:00,
2013-12-25 21:09:00,28.3,10.6,30.20,West,277,0.0,0.0,47,0.00,-RA,OVC,0.00,WeatherDisplay:10.37,2013-12-26 04:09:00,
2013-12-25 21:14:00,28.2,10.5,30.20,West,277,3.5,3.5,47,0.00,-RA,OVC,0.00,WeatherDisplay:10.37,2013-12-26 04:14:00,
2013-12-25 21:19:00,28.4,10.7,30.20,South,184,0.0,0.0,47,0.00,-RA,OVC,0.00,WeatherDisplay:10.37,2013-12-26 04:19:00,
2013-12-25 21:24:00,28.4,10.7,30.20,South,184,0.0,0.0,47,0.00,-RA,OVC,0.00,WeatherDisplay:10.37,2013-12-26 04:24:00,
2013-12-25 21:29:00,28.7,10.5,30.20,South,184,0.0,0.0,46,0.00,-RA,OVC,0.00,WeatherDisplay:10.37,2013-12-26 04:29:00,
2013-12-25 21:34:00,28.7,10.0,30.20,South,184,1.1,1.1,45,0.00,-RA,OVC,0.00,WeatherDisplay:10.37,2013-12-26 04:34:00,
2013-12-25 21:39:00,28.8,10.6,30.20,South,184,0.0,0.0,46,0.00,-RA,OVC,0.00,WeatherDisplay:10.37,2013-12-26 04:39:00,
2013-12-25 21:44:00,28.9,10.2,30.20,South,183,0.0,0.1,45,0.00,-RA,OVC,0.00,WeatherDisplay:10.37,2013-12-26 04:44:00,
2013-12-25 21:49:00,29.1,10.4,30.20,South,182,3.5,3.5,45,0.00,-RA,OVC,0.00,WeatherDisplay:10.37,2013-12-26 04:49:00,
2013-12-25 21:54:00,29.2,10.0,30.20,South,182,0.0,0.0,44,0.00,-RA,OVC,0.00,WeatherDisplay:10.37,2013-12-26 04:54:00,
2013-12-25 21:59:00,29.2,10.0,30.20,South,182,1.0,1.0,44,0.00,-RA,OVC,0.00,WeatherDisplay:10.37,2013-12-26 04:59:00,
2013-12-25 22:01:00,29.2,10.0,30.20,NE,51,3.0,3.3,44,0.00,-RA,OVC,0.00,WeatherDisplay:10.37,2013-12-26 05:01:00,
2013-12-25 22:06:00,30.2,9.8,30.20,NNE,22,4.6,4.6,42,0.00,-RA,OVC,0.00,WeatherDisplay:10.37,2013-12-26 05:06:00,
2013-12-25 22:11:00,30.7,9.7,30.20,NNE,22,2.3,2.3,41,0.00,-RA,OVC,0.00,WeatherDisplay:10.37,2013-12-26 05:11:00,
2013-12-25 22:16:00,31.2,10.7,30.20,NNE,22,0.0,0.0,42,0.00,-RA,OVC,0.00,WeatherDisplay:10.37,2013-12-26 05:16:00,
2013-12-25 22:21:00,31.6,10.0,30.20,NNE,22,3.5,3.5,40,0.00,-RA,OVC,0.00,WeatherDisplay:10.37,2013-12-26 05:21:00,
2013-12-25 22:26:00,31.9,10.3,30.20,NNE,22,2.3,2.3,40,0.00,-RA,OVC,0.00,WeatherDisplay:10.37,2013-12-26 05:26:00,
2013-12-25 22:31:00,32.1,9.9,30.20,NNE,22,1.1,1.1,39,0.00,-RA,OVC,0.00,WeatherDisplay:10.37,2013-12-26 05:31:00,
2013-12-25 22:36:00,32.4,10.2,30.20,NNE,22,3.5,3.5,39,0.00,-RA,OVC,0.00,WeatherDisplay:10.37,2013-12-26 05:36:00,
2013-12-25 22:41:00,32.8,9.9,30.20,NNE,22,1.1,0.0,38,0.00,-RA,OVC,0.00,WeatherDisplay:10.37,2013-12-26 05:41:00,
2013-12-25 22:46:00,33.5,9.4,30.20,NNE,22,3.5,3.5,36,0.00,-RA,OVC,0.00,WeatherDisplay:10.37,2013-12-26 05:46:00,
2013-12-25 22:51:00,34.3,10.1,30.20,NNE,22,2.3,2.3,36,0.00,-RA,OVC,0.00,WeatherDisplay:10.37,2013-12-26 05:51:00,
2013-12-25 22:56:00,34.4,9.5,30.20,ENE,59,0.0,0.0,35,0.00,-RA,OVC,0.00,WeatherDisplay:10.37,2013-12-26 05:56:00,
2013-12-25 23:01:00,34.9,10.0,30.20,East,100,5.8,5.8,35,0.00,-RA,OVC,0.00,WeatherDisplay:10.37,2013-12-26 06:01:00,
2013-12-25 23:06:00,35.4,9.8,30.20,East,100,1.1,1.1,34,0.00,-RA,OVC,0.00,WeatherDisplay:10.37,2013-12-26 06:06:00,
2013-12-25 23:11:00,35.4,9.8,30.20,East,100,3.5,3.5,34,0.00,-RA,OVC,0.00,WeatherDisplay:10.37,2013-12-26 06:11:00,
2013-12-25 23:16:00,34.9,10.0,30.20,East,100,1.1,1.1,35,0.00,-RA,OVC,0.00,WeatherDisplay:10.37,2013-12-26 06:16:00,
2013-12-25 23:21:00,33.9,9.7,30.20,East,100,3.5,3.5,36,0.00,-RA,OVC,0.00,WeatherDisplay:10.37,2013-12-26 06:21:00,
2013-12-25 23:26:00,32.8,9.9,30.17,East,100,0.0,0.0,38,0.00,-RA,OVC,0.00,WeatherDisplay:10.37,2013-12-26 06:26:00,
2013-12-25 23:31:00,31.9,9.7,30.17,East,100,2.3,2.3,39,0.00,-RA,OVC,0.00,WeatherDisplay:10.37,2013-12-26 06:31:00,
2013-12-25 23:36:00,30.8,9.8,30.17,East,100,0.0,0.2,41,0.00,-RA,OVC,0.00,WeatherDisplay:10.37,2013-12-26 06:36:00,
2013-12-25 23:41:00,29.9,10.1,30.17,East,100,2.3,2.3,43,0.00,-RA,OVC,0.00,WeatherDisplay:10.37,2013-12-26 06:41:00,
2013-12-25 23:46:00,29.3,10.1,30.17,NE,42,4.6,4.6,44,0.00,-RA,OVC,0.00,WeatherDisplay:10.37,2013-12-26 06:46:00,
2013-12-25 23:51:00,29.0,9.8,30.17,NE,42,1.1,0.0,44,0.00,-RA,OVC,0.00,WeatherDisplay:10.37,2013-12-26 06:51:00,
2013-12-25 23:56:00,28.8,10.1,30.17,NE,42,1.1,1.1,45,0.00,-RA,OVC,0.00,WeatherDisplay:10.37,2013-12-26 06:56:00,